Find Starlink 31983

NORAD ID: 60602 Int'l Des: 2024-150 Owner: SPXS Country: US Constellation: starlink operational
LEOCIRCULAR

現在のビュー

3D地球を読み込み中...

About Starlink 31983

Starlink 31983 (NORAD 60602) is a starlink constellation satellite (v2 mini) launched Aug 20, 2024 by SPXS of US. It operates in LEO, CIRCULAR orbit with a mass of 730.00 kg.

Starlink 31983について

説明を読み込み中...

次回通過

Passes for default location (London). Set your location on the main map for personalized predictions.

高度履歴

Loading altitude history...

軌道要素

1 60602U 24150V 26175.26241235 .00000508 00000-0 26185-4 0 9991
2 60602 53.1594 170.1997 0001254 86.5231 273.5915 15.34392331104308
Epoch: Jun 24, 2026 • Age: 24 hours

現在のステータス

高度 464.0 km
速度 7.64 km/s
衛星直下点 -2.11°S, 24.45°W
打ち上げ日 Aug 20, 2024
運用期間 1.8 years
タイプ internet

技術仕様

分類 Payload
質量 730.00 kg
乾燥質量 700.00 kg
総質量 730.00 kg
長さ 0.30 m
直径 4.10 m
スパン 29.00 m
形状 Box + pan
製造者 SPXS
バスタイプ Starlink V2M
フェーズステータス In Orbit
所有者/国 SPXS/US

Most Searched